[[{"header":{"parameterUnit":"m.s-1","parameterCategory":2,"la1":30.2991,"la2":30.254,"lo1":-89.0895,"lo2":-89.0444,"dy":0.0017,"dx":0.0017,"nx":28,"ny":28,"refTime":"2024-07-01T21:00:00:Z","depth":"0","parameterNumber":2,"parameterNumberName":"U-component_of_CURRENTS"},"data":[0,0,0,0,0,0,0,0,0,0,0,0,0,0,0,0,0,0,0,0,0,0,0,0,0,0,0,0,0,0,0,0,0,0,0,0,0,0,0,0,0,0,0,0,0,0,0,0,0,0,0,0,0,0,0,0,0,0,0.3991,0.3992,0,0.4012,0.4011,0.4011,0.4031,0.4032,0.4033,0.4034,0.4098,0.4099,0.4099,0,0,0,0,0,0,0,0,0,0,0,0,0,0.3833,0.3836,0.3991,0.3992,0.3993,0.4012,0.4011,0.4011,0.4031,0.4032,0.4033,0.4034,0.4097,0.4098,0.4099,0,0,0,0,0,0,0,0,0,0,0,0,0,0.3876,0.3837,0.3991,0.401,0.4013,0.4012,0.4011,0.4011,0.4031,0.4032,0.4033,0.4035,0.4097,0.4098,0.41,0.4079,0,0,0.4103,0.4104,0,0,0,0,0,0,0,0,0.3873,0.3881,0.4007,0.4009,0.4012,0.4027,0.3979,0.4038,0.403,0.4016,0.4034,0.4035,0.4082,0.4084,0.4074,0.4082,0.4085,0.4104,0.4104,0.4105,0.4105,0,0,0,0,0,0,0,0.3871,0.3879,0.3992,0.4008,0.4011,0.3972,0.398,0.3989,0.4036,0.4017,0.4021,0.4034,0.4083,0.4073,0.4076,0.4086,0.4104,0.4105,0.4105,0.4106,0.4152,0.4152,0,0,0,0,0,0,0.3889,0.3877,0.3991,0.3993,0.3953,0.3975,0.3984,0.4014,0.4035,0.4041,0.4033,0.4035,0.407,0.4074,0.4078,0.4076,0.4105,0.4106,0.4107,0.4151,0.4152,0.4153,0,0,0,0,0,0,0.3886,0.39,0.399,0.394,0.395,0.3978,0.4011,0.4014,0.4011,0.4048,0.4054,0.4028,0.4071,0.4077,0.4094,0.4079,0.4107,0.4108,0.4151,0.4152,0.4152,0.406,0,0,0,0,0,0,0.3881,0.3898,0.3906,0.3942,0.3954,0.3984,0.4011,0.4014,0.402,0.4023,0.4046,0.4052,0.4073,0.4092,0.4095,0.4081,0.4109,0.415,0.4151,0.4152,0.4062,0.4057,0.4053,0,0,0,0,0,0.3876,0.389,0.3907,0.392,0.3972,0.3984,0.3985,0.4003,0.4019,0.4006,0.4033,0.4052,0.4101,0.4092,0.4096,0.4082,0.415,0.4151,0.4152,0.4064,0.4058,0.4053,0,0,0,0,0,0,0.3828,0.3895,0.3914,0.395,0.3963,0.3991,0.398,0.3999,0.4005,0.401,0.4046,0.4054,0.4073,0.4093,0.4084,0.4105,0.4133,0.4135,0.4065,0.406,0.4055,0.406,0.411,0,0,0,0,0,0.3823,0.3848,0.3898,0.3918,0.3925,0.3949,0.3952,0.3969,0.3991,0.3994,0.4012,0.4043,0.4077,0.4081,0.4112,0.4103,0.4139,0.4105,0.41,0.4095,0.4106,0.4163,0.4164,0.4156,0.4156,0.4156,0,0,0.381,0.3849,0.3862,0.3907,0.3916,0.3916,0.3952,0.3956,0.3954,0.4001,0.399,0.4029,0.4078,0.4083,0.4092,0.4094,0.4109,0.4097,0.4092,0.4106,0.4164,0.4165,0.4165,0.4157,0.4157,0.4156,0,0,0.3792,0.3828,0.3838,0.3846,0.387,0.3882,0.3886,0.3908,0.3912,0.3913,0.3963,0.399,0.4014,0.4046,0.4069,0.4058,0.4095,0.4071,0.4028,0.4081,0.4082,0.4084,0.4088,0.4091,0.4051,0.4051,0.4051,0,0.3772,0.3803,0.3834,0.3837,0.3839,0.3868,0.3862,0.3865,0.3887,0.3891,0.3903,0.3965,0.3998,0.4028,0.4031,0.4044,0.4073,0.4035,0.4073,0.4075,0.4078,0.4083,0.4087,0.4047,0.4047,0.4048,0.4048,0,0.3763,0.3774,0.3772,0.3791,0.3787,0.3785,0.3805,0.3795,0.3806,0.3821,0.3848,0.3893,0.3935,0.3946,0.3984,0.402,0.4031,0.4069,0.4078,0.4073,0.4079,0.4084,0.404,0.4042,0.4043,0.4044,0,0,0.3761,0.3769,0.3769,0.3754,0.3765,0.3759,0.3747,0.3751,0.3744,0.3762,0.3763,0.3823,0.3856,0.389,0.3937,0.3975,0.4003,0.4025,0.403,0.4012,0.4092,0.3913,0.3902,0.4051,0.4053,0.4054,0.4071,0,0.3743,0.374,0.3749,0.3713,0.3701,0.3707,0.3689,0.369,0.3698,0.3699,0.3753,0.3777,0.3832,0.385,0.3902,0.3993,0.4023,0.3993,0.4117,0.4119,0.3948,0.3905,0.3688,0.3669,0.4077,0.4078,0.4079,0,0.3726,0.3729,0.3704,0.3669,0.3664,0.3644,0.3617,0.361,0.3623,0.3632,0.3668,0.3712,0.377,0.3823,0.3952,0.3933,0.4013,0.4073,0.4076,0.3952,0.3952,0.3753,0.3665,0.3522,0.4088,0.4087,0.4087,0,0.3693,0.3683,0.366,0.365,0.3626,0.3605,0.3595,0.359,0.357,0.3597,0.3584,0.3669,0.3697,0.3822,0.393,0.3956,0.4061,0.4109,0.4017,0.4004,0.3864,0.3834,0.364,0.4211,0.4211,0.421,0.421,0,0.3663,0.3633,0.3641,0.3621,0.3571,0.3573,0.3522,0.3522,0.3522,0.3491,0.3556,0.3549,0.3708,0.3773,0.3903,0.394,0.4038,0.3993,0.3995,0.3818,0.3786,0.3694,0.3677,0.4211,0.4211,0.4211,0.4211,0,0.36,0.3615,0.357,0.3558,0.3544,0.3506,0.3461,0.3432,0.3443,0.3408,0.3411,0.3463,0.3524,0.3646,0.3818,0.3855,0.3803,0.3948,0.3689,0.3657,0.3385,0.3373,0.3153,0.3094,0.382,0.3816,0.3812,0,0.355,0.3534,0.3512,0.3486,0.3472,0.3426,0.3388,0.3387,0.336,0.3347,0.3328,0.3355,0.336,0.3475,0.3544,0.3647,0.3628,0.3489,0.3493,0.3299,0.3292,0.3226,0.3192,0.3273,0.3265,0.3259,0.3253,0,0.3461,0.3469,0.3458,0.3404,0.3361,0.3299,0.326,0.3224,0.322,0.3191,0.3159,0.3158,0.3195,0.3144,0.3215,0.3283,0.3236,0.3355,0.325,0.2897,0.2725,0.2691,0.3315,0.3197,0.3202,0.3206,0.321,0.3212,0.3392,0.3371,0.3368,0.3296,0.3254,0.3171,0.3072,0.3051,0.2981,0.2872,0.2981,0.2875,0.2816,0.2855,0.2897,0.2706,0.2853,0.2626,0.2644,0.2608,0.2466,0.2912,0.2734,0.2737,0.2739,0.2742,0.2743,0,0.3266,0.3279,0.3247,0.3155,0.3056,0.3063,0.2966,0.2839,0.2712,0.2672,0.2615,0.2429,0.2312,0.2276,0.2117,0.2016,0.2035,0.1947,0.1836,0.1865,0.2326,0.2213,0.1795,0.1796,0.1796,0.1796,0.1796,0.1796,0.3212,0.3158,0.3146,0.2968,0.2898,0.2683,0.2596,0.2447,0.2365,0.2114,0.1946,0.1934,0.1824,0.1597,0.1415,0.1426,0.1391,0.1252,0.1379,0.1708,0.1774,0.1838,0.1722,0.1209,0.1208,0.0819,0.0816,0.0813]},{"header":{"parameterUnit":"m.s-1","parameterCategory":2,"la1":30.2991,"la2":30.254,"lo1":-89.0895,"lo2":-89.0444,"dy":0.0017,"dx":0.0017,"nx":28,"ny":28,"refTime":"2024-07-01T21:00:00:Z","depth":"0","parameterNumber":3,"parameterNumberName":"V-component_of_CURRENTS"},"data":[0,0,0,0,0,0,0,0,0,0,0,0,0,0,0,0,0,0,0,0,0,0,0,0,0,0,0,0,0,0,0,0,0,0,0,0,0,0,0,0,0,0,0,0,0,0,0,0,0,0,0,0,0,0,0,0,0,0,0.0142,0.0144,0,0.0328,0.0331,0.0334,0.0404,0.0403,0.0402,0.04,0.0639,0.0646,0.0654,0,0,0,0,0,0,0,0,0,0,0,0,0,0.0016,0.0017,0.0142,0.0144,0.0145,0.0328,0.0331,0.0334,0.0404,0.0403,0.0401,0.04,0.0637,0.0645,0.0654,0,0,0,0,0,0,0,0,0,0,0,0,0,0.0128,0.0018,0.0142,0.0198,0.0204,0.0327,0.0331,0.0335,0.0404,0.0403,0.0401,0.0399,0.0634,0.0644,0.0655,0.0758,0,0,0.0689,0.0694,0,0,0,0,0,0,0,0,0.0122,0.0134,0.0188,0.0194,0.0201,0.0336,0.0374,0.0477,0.0405,0.0335,0.04,0.0398,0.054,0.0558,0.0605,0.077,0.078,0.069,0.0697,0.0702,0.0705,0,0,0,0,0,0,0,0.0114,0.0127,0.0222,0.019,0.0198,0.0271,0.0284,0.0395,0.045,0.0341,0.0345,0.0356,0.0544,0.0594,0.0611,0.0783,0.069,0.07,0.0707,0.0711,0.1039,0.104,0,0,0,0,0,0,0.0072,0.0119,0.0216,0.0227,0.015,0.0273,0.0289,0.0299,0.0448,0.0467,0.0358,0.0359,0.0576,0.0598,0.062,0.0765,0.0702,0.0712,0.0719,0.1037,0.1039,0.1041,0,0,0,0,0,0,0.0068,0.0079,0.0208,0.0172,0.0193,0.0275,0.0288,0.0304,0.0353,0.0459,0.048,0.0389,0.0576,0.0605,0.0741,0.0774,0.0717,0.0727,0.1034,0.1037,0.104,0.1046,0,0,0,0,0,0,0.0064,0.0076,0.0085,0.0169,0.0193,0.0297,0.029,0.0308,0.036,0.0364,0.0494,0.0514,0.0577,0.0724,0.0752,0.0788,0.0736,0.1032,0.1036,0.1039,0.1043,0.1048,0.1053,0,0,0,0,0,0.0059,0.0082,0.0084,0.0097,0.0197,0.0298,0.032,0.0377,0.0362,0.041,0.0494,0.051,0.0766,0.0736,0.0768,0.0808,0.103,0.1034,0.1039,0.1041,0.1047,0.1053,0,0,0,0,0,0,0.0044,0.0094,0.0097,0.0136,0.0212,0.0308,0.0354,0.0379,0.0483,0.0484,0.0565,0.0595,0.0721,0.0769,0.0733,0.091,0.089,0.0901,0.088,0.0888,0.0893,0.0863,0.0745,0,0,0,0,0,0.0037,0.0062,0.013,0.0166,0.0196,0.0271,0.0318,0.0357,0.0447,0.0489,0.0576,0.0667,0.0768,0.0828,0.0929,0.1045,0.1028,0.1082,0.1087,0.1091,0.1088,0.1086,0.1089,0.1056,0.1056,0.1056,0,0,0.0036,0.0071,0.0083,0.0163,0.0221,0.0302,0.0298,0.0375,0.0449,0.0503,0.0635,0.0702,0.0805,0.0931,0.0988,0.0974,0.1091,0.1097,0.1099,0.1094,0.1091,0.1093,0.1096,0.1059,0.1059,0.1058,0,0,0.006,0.0082,0.0113,0.0183,0.0265,0.0327,0.0343,0.0444,0.0494,0.0626,0.067,0.0749,0.0924,0.0988,0.1044,0.114,0.1121,0.1168,0.1176,0.1175,0.1176,0.1177,0.1146,0.1144,0.1166,0.1166,0.1166,0,0.0051,0.011,0.0146,0.0214,0.0278,0.0333,0.0409,0.0487,0.0622,0.0664,0.0669,0.0869,0.0947,0.1072,0.1101,0.115,0.1132,0.1142,0.1177,0.1178,0.1179,0.1146,0.1144,0.1167,0.1167,0.1167,0.1167,0,0.0111,0.017,0.0206,0.0301,0.0379,0.0461,0.0555,0.0631,0.0681,0.0742,0.0861,0.0956,0.1054,0.1093,0.1139,0.1195,0.1174,0.1181,0.1148,0.1181,0.1146,0.1144,0.1168,0.1168,0.1168,0.1168,0,0,0.0066,0.021,0.0225,0.029,0.0433,0.0503,0.0621,0.0739,0.079,0.0894,0.0959,0.1106,0.1099,0.1159,0.1201,0.1206,0.1197,0.1195,0.1195,0.1141,0.1166,0.1135,0.1129,0.1202,0.1203,0.1203,0.1131,0,0.0106,0.0229,0.03,0.0445,0.0528,0.062,0.0722,0.0827,0.0905,0.0985,0.104,0.1127,0.1142,0.117,0.1181,0.1211,0.1194,0.1213,0.1162,0.116,0.111,0.1127,0.1117,0.1053,0.1129,0.1129,0.1128,0,0.0154,0.0235,0.0361,0.0517,0.0555,0.064,0.0784,0.0883,0.0993,0.1038,0.1098,0.1141,0.1197,0.1179,0.12,0.121,0.1181,0.1177,0.1175,0.1141,0.1126,0.1039,0.1045,0.1022,0.1124,0.1125,0.1125,0,0.0133,0.0289,0.0385,0.0447,0.0619,0.0675,0.076,0.0886,0.0956,0.1051,0.1084,0.1152,0.1177,0.1171,0.1176,0.1182,0.1163,0.1167,0.1101,0.1097,0.1077,0.1072,0.1037,0.1138,0.1138,0.1139,0.1139,0,0.0183,0.0268,0.0371,0.0439,0.0534,0.0653,0.0749,0.0836,0.0936,0.1011,0.1084,0.1134,0.1173,0.1183,0.1167,0.1129,0.1148,0.1096,0.1082,0.1079,0.1075,0.1045,0.1049,0.1136,0.1137,0.1137,0.1138,0,0.0194,0.0263,0.0371,0.0501,0.0537,0.0602,0.0734,0.0799,0.0888,0.098,0.1006,0.111,0.1136,0.115,0.1142,0.1111,0.1072,0.1051,0.1033,0.1018,0.0939,0.0945,0.0898,0.0933,0.0966,0.0965,0.0964,0,0.024,0.0287,0.038,0.0417,0.0479,0.0574,0.064,0.076,0.0833,0.0971,0.1011,0.1068,0.1131,0.1106,0.1076,0.1024,0.1026,0.0947,0.0963,0.0927,0.0923,0.0933,0.0969,0.093,0.0929,0.0928,0.0927,0,0.0316,0.0308,0.0373,0.0417,0.0476,0.0562,0.0663,0.0711,0.0854,0.0924,0.1027,0.1083,0.1092,0.1077,0.101,0.0972,0.0954,0.0924,0.0904,0.0904,0.0898,0.0926,0.0964,0.0919,0.0919,0.092,0.0921,0.0921,0.0351,0.0365,0.0394,0.0439,0.0494,0.0568,0.0625,0.0727,0.0829,0.0954,0.1012,0.1092,0.1071,0.1009,0.0956,0.0843,0.0892,0.0805,0.0813,0.0824,0.0868,0.0871,0.0806,0.0807,0.0807,0.0807,0.0807,0,0.0404,0.0395,0.0428,0.0476,0.0516,0.0552,0.0658,0.0706,0.0807,0.093,0.1012,0.1043,0.0997,0.0939,0.0799,0.0739,0.0768,0.0713,0.0737,0.0782,0.0785,0.0795,0.0706,0.0706,0.0706,0.0706,0.0706,0.0706,0.0439,0.0444,0.0434,0.049,0.052,0.0573,0.0624,0.0689,0.078,0.0873,0.0933,0.0993,0.0972,0.0772,0.066,0.065,0.0689,0.0655,0.0702,0.0697,0.0707,0.0716,0.0726,0.0624,0.0624,0.0716,0.0717,0.0717]}],[{"header":{"parameterUnit":"m.s-1","parameterCategory":2,"la1":30.2991,"la2":30.254,"lo1":-89.0895,"lo2":-89.0444,"dy":0.0017,"dx":0.0017,"nx":28,"ny":28,"refTime":"2024-07-01T21:00:00:Z","depth":"2","parameterNumber":2,"parameterNumberName":"U-component_of_CURRENTS"},"data":[0,0,0,0,0,0,0,0,0,0,0,0,0,0,0,0,0,0,0,0,0,0,0,0,0,0,0,0,0,0,0,0,0,0,0,0,0,0,0,0,0,0,0,0,0,0,0,0,0,0,0,0,0,0,0,0,0,0,0.215,0.2151,0,0.2345,0.2348,0.2351,0.2482,0.2482,0.2482,0.2483,0.2895,0.2905,0.2916,0,0,0,0,0,0,0,0,0,0,0,0,0,0.2044,0.2045,0.215,0.2151,0.2153,0.2345,0.2348,0.2352,0.2482,0.2482,0.2483,0.2483,0.2891,0.2904,0.2916,0,0,0,0,0,0,0,0,0,0,0,0,0,0.2156,0.2045,0.2149,0.2236,0.2246,0.2344,0.2348,0.2352,0.2482,0.2482,0.2483,0.2483,0.2887,0.2902,0.2918,0.3008,0,0,0.2967,0.2974,0,0,0,0,0,0,0,0,0.2149,0.216,0.2222,0.223,0.2241,0.2384,0.2462,0.258,0.2482,0.2399,0.2483,0.2483,0.2739,0.2767,0.281,0.3028,0.3045,0.2969,0.2978,0.2985,0.299,0,0,0,0,0,0,0,0.2141,0.2153,0.2234,0.2223,0.2235,0.2319,0.2334,0.2485,0.2574,0.2406,0.2415,0.2426,0.2747,0.2794,0.2821,0.3052,0.2968,0.2982,0.2992,0.2999,0.339,0.3391,0,0,0,0,0,0,0.2095,0.2145,0.2228,0.2239,0.2188,0.2319,0.2337,0.2343,0.2568,0.2598,0.2425,0.2431,0.2766,0.2802,0.2836,0.3017,0.2985,0.3,0.3009,0.339,0.339,0.3391,0,0,0,0,0,0,0.2092,0.21,0.222,0.2192,0.2212,0.2318,0.2326,0.2346,0.2434,0.2578,0.2615,0.2494,0.2768,0.2813,0.2996,0.3032,0.3007,0.3022,0.3389,0.339,0.3391,0.3342,0,0,0,0,0,0,0.2088,0.2098,0.2117,0.2188,0.2211,0.2297,0.2325,0.235,0.2434,0.2445,0.2649,0.2685,0.2772,0.2971,0.3012,0.3054,0.3035,0.3388,0.3389,0.3391,0.3343,0.3341,0.334,0,0,0,0,0,0.2083,0.2106,0.2117,0.2128,0.2224,0.2297,0.232,0.2401,0.2437,0.2482,0.2615,0.2681,0.3007,0.2987,0.3034,0.3081,0.3387,0.3389,0.339,0.3343,0.3342,0.334,0,0,0,0,0,0,0.2084,0.2123,0.2136,0.2173,0.2233,0.2317,0.2371,0.2423,0.2562,0.259,0.2726,0.2772,0.2932,0.3016,0.2988,0.3189,0.3196,0.3207,0.3143,0.3144,0.3142,0.3089,0.3048,0,0,0,0,0,0.2082,0.2106,0.2156,0.2191,0.2216,0.23,0.2351,0.2402,0.2512,0.2575,0.2712,0.2849,0.297,0.3064,0.3183,0.333,0.333,0.3376,0.3375,0.3373,0.3358,0.3379,0.3378,0.3397,0.3397,0.3397,0,0,0.2093,0.2117,0.2134,0.2193,0.2247,0.2292,0.2336,0.2415,0.2473,0.2603,0.2759,0.2868,0.3005,0.3143,0.322,0.3228,0.3363,0.3375,0.3373,0.3359,0.3381,0.3379,0.3377,0.3398,0.3398,0.3398,0,0,0.2113,0.2143,0.2166,0.2207,0.2275,0.2322,0.2347,0.2451,0.2522,0.2668,0.2754,0.2876,0.3099,0.3176,0.3246,0.3317,0.335,0.3362,0.3338,0.3359,0.3357,0.3355,0.3322,0.3318,0.3369,0.3369,0.3369,0,0.2138,0.2157,0.2192,0.222,0.2264,0.2331,0.2378,0.2449,0.2607,0.2677,0.2713,0.2977,0.3099,0.323,0.3242,0.3316,0.3312,0.3335,0.3354,0.3353,0.3351,0.3319,0.3315,0.3367,0.3367,0.3367,0.3367,0,0.2155,0.2189,0.2211,0.2256,0.2307,0.2366,0.2434,0.2522,0.2614,0.2687,0.2848,0.2983,0.3132,0.318,0.3247,0.3309,0.33,0.3341,0.3348,0.3346,0.3312,0.3309,0.3363,0.3364,0.3365,0.3365,0,0,0.2183,0.2221,0.2233,0.2266,0.2338,0.2388,0.2469,0.2576,0.2635,0.2773,0.2856,0.3038,0.3094,0.3171,0.3256,0.3273,0.3259,0.3302,0.3304,0.325,0.3262,0.3021,0.2994,0.3306,0.3306,0.3306,0.323,0,0.2208,0.2261,0.2271,0.2346,0.2392,0.2456,0.2519,0.2616,0.2707,0.2797,0.2908,0.3027,0.3093,0.3164,0.319,0.326,0.3253,0.3273,0.3289,0.3288,0.3059,0.2983,0.281,0.2707,0.3226,0.3226,0.3225,0,0.2227,0.2265,0.2337,0.2405,0.2429,0.2479,0.2594,0.2656,0.276,0.2829,0.2927,0.3003,0.309,0.3119,0.3191,0.3204,0.3219,0.3238,0.3237,0.3024,0.3039,0.2803,0.2682,0.322,0.322,0.322,0.3221,0,0.2253,0.2317,0.2385,0.2411,0.2487,0.2548,0.2599,0.2694,0.2741,0.2845,0.2874,0.2985,0.3041,0.3086,0.3149,0.3177,0.3164,0.3219,0.3,0.2984,0.2839,0.2807,0.3217,0.3217,0.3217,0.3217,0.3217,0,0.2282,0.2336,0.2408,0.245,0.253,0.2573,0.2648,0.2715,0.2764,0.2792,0.2891,0.2905,0.3034,0.3056,0.3104,0.3009,0.3139,0.2944,0.2934,0.2811,0.2779,0.3246,0.3251,0.3214,0.3215,0.3215,0.3216,0,0.2295,0.2343,0.2426,0.2519,0.2548,0.2613,0.2663,0.2684,0.2745,0.2766,0.2796,0.2855,0.2865,0.2936,0.2989,0.2918,0.2889,0.283,0.2635,0.2597,0.2699,0.2703,0.2542,0.2532,0.2524,0.2518,0.2512,0,0.229,0.234,0.2471,0.2509,0.2556,0.2628,0.2647,0.2698,0.2691,0.2719,0.2703,0.2723,0.268,0.261,0.2541,0.2484,0.2691,0.2249,0.2245,0.2616,0.2625,0.2641,0.2655,0.2053,0.2044,0.2037,0.2031,0,0.2275,0.2351,0.2418,0.2504,0.2552,0.2582,0.2608,0.2585,0.2607,0.2593,0.2532,0.249,0.2374,0.2183,0.2068,0.2036,0.2235,0.2083,0.2556,0.2216,0.2139,0.2153,0.2187,0.1966,0.1973,0.1978,0.1981,0.1984,0.2262,0.2308,0.2399,0.2494,0.2522,0.2514,0.2426,0.2406,0.235,0.2207,0.2289,0.2099,0.2018,0.1682,0.1624,0.1577,0.1717,0.1673,0.1705,0.1742,0.1663,0.1573,0.1277,0.128,0.1282,0.1284,0.1285,0,0.2194,0.2288,0.2358,0.2416,0.2356,0.242,0.2352,0.2185,0.2006,0.1941,0.1816,0.1537,0.1348,0.1344,0.1132,0.104,0.1143,0.1037,0.1212,0.1272,0.1326,0.1238,0.0734,0.0733,0.0732,0.0731,0,0,0.2165,0.2197,0.2266,0.222,0.2219,0.2032,0.1924,0.1727,0.1605,0.1378,0.1229,0.1188,0.1214,0.094,0.089,0.0797,0.1048,0.0761,0.1193,0.1456,0.1511,0.166,0.1582,0,0,0,0,0]},{"header":{"parameterUnit":"m.s-1","parameterCategory":2,"la1":30.2991,"la2":30.254,"lo1":-89.0895,"lo2":-89.0444,"dy":0.0017,"dx":0.0017,"nx":28,"ny":28,"refTime":"2024-07-01T21:00:00:Z","depth":"2","parameterNumber":3,"parameterNumberName":"V-component_of_CURRENTS"},"data":[0,0,0,0,0,0,0,0,0,0,0,0,0,0,0,0,0,0,0,0,0,0,0,0,0,0,0,0,0,0,0,0,0,0,0,0,0,0,0,0,0,0,0,0,0,0,0,0,0,0,0,0,0,0,0,0,0,0,-0.0338,-0.0337,0,-0.0231,-0.0229,-0.0227,-0.0168,-0.0169,-0.0169,-0.017,0.0114,0.0122,0.0129,0,0,0,0,0,0,0,0,0,0,0,0,0,-0.0353,-0.0354,-0.0338,-0.0337,-0.0336,-0.0231,-0.0229,-0.0227,-0.0168,-0.0169,-0.0169,-0.017,0.0111,0.0121,0.013,0,0,0,0,0,0,0,0,0,0,0,0,0,-0.0301,-0.0354,-0.0338,-0.0299,-0.0295,-0.0231,-0.0229,-0.0226,-0.0168,-0.0169,-0.0169,-0.017,0.0108,0.012,0.0131,0.0217,0,0,0.0168,0.0173,0,0,0,0,0,0,0,0,-0.0304,-0.03,-0.0305,-0.0302,-0.0297,-0.0219,-0.0131,-0.0071,-0.0168,-0.021,-0.017,-0.017,0.0016,0.0035,0.0063,0.023,0.0243,0.0169,0.0176,0.0181,0.0185,0,0,0,0,0,0,0,-0.0308,-0.0303,-0.0289,-0.0305,-0.0299,-0.024,-0.0234,-0.0119,-0.0087,-0.0206,-0.0203,-0.0201,0.002,0.0051,0.007,0.0247,0.0169,0.0179,0.0186,0.0191,0.0484,0.0485,0,0,0,0,0,0,-0.034,-0.0308,-0.0293,-0.0286,-0.0309,-0.024,-0.0233,-0.0238,-0.0092,-0.0073,-0.02,-0.0199,0.0031,0.0056,0.0081,0.024,0.0181,0.0192,0.0199,0.0484,0.0484,0.0485,0,0,0,0,0,0,-0.0341,-0.034,-0.0297,-0.0299,-0.029,-0.0241,-0.0246,-0.0236,-0.0205,-0.0091,-0.0068,-0.0182,0.0031,0.0064,0.0196,0.0249,0.0198,0.0208,0.0483,0.0484,0.0485,0.0528,0,0,0,0,0,0,-0.0342,-0.0341,-0.0347,-0.0302,-0.0291,-0.025,-0.0246,-0.0234,-0.0206,-0.0202,-0.0066,-0.0042,0.0033,0.0177,0.0207,0.0265,0.0218,0.0482,0.0483,0.0485,0.0526,0.053,0.0534,0,0,0,0,0,-0.0343,-0.0338,-0.0348,-0.0345,-0.0304,-0.025,-0.0237,-0.02,-0.0205,-0.0177,-0.0088,-0.0046,0.0204,0.0189,0.0224,0.0286,0.0481,0.0483,0.0484,0.0524,0.0529,0.0534,0,0,0,0,0,0,-0.0329,-0.0331,-0.034,-0.0333,-0.0298,-0.0242,-0.0215,-0.0202,-0.0113,-0.0104,-0.0008,0.0026,0.0156,0.0203,0.0182,0.0363,0.0339,0.0348,0.0357,0.0363,0.0367,0.0343,0.0228,0,0,0,0,0,-0.0339,-0.0343,-0.0325,-0.0314,-0.0304,-0.0265,-0.024,-0.0215,-0.0143,-0.0108,-0.0011,0.0084,0.0189,0.0259,0.0356,0.0477,0.0446,0.0523,0.0528,0.0531,0.053,0.0496,0.0497,0.049,0.049,0.049,0,0,-0.033,-0.0332,-0.0333,-0.0313,-0.0286,-0.0237,-0.0248,-0.0205,-0.0142,-0.0083,0.0048,0.0117,0.0221,0.0352,0.0412,0.0403,0.0517,0.0533,0.0537,0.0532,0.0497,0.0498,0.0498,0.0491,0.0491,0.0491,0,0,-0.0306,-0.0319,-0.0314,-0.0284,-0.0255,-0.0216,-0.021,-0.0148,-0.01,0.002,0.007,0.0153,0.0332,0.0404,0.0465,0.0545,0.0537,0.0576,0.0602,0.057,0.0569,0.0569,0.0529,0.0525,0.0583,0.0583,0.0583,0,-0.0303,-0.0288,-0.0294,-0.0267,-0.0228,-0.0209,-0.0159,-0.0098,0.0009,0.0066,0.0068,0.0274,0.0354,0.0495,0.052,0.056,0.0528,0.0584,0.0574,0.0573,0.0572,0.0531,0.0525,0.0585,0.0585,0.0585,0.0585,0,-0.0265,-0.0246,-0.023,-0.0193,-0.0145,-0.0097,-0.0031,0.0037,0.009,0.0152,0.0284,0.0368,0.0481,0.0516,0.0561,0.0612,0.0588,0.0579,0.0559,0.0575,0.0531,0.0524,0.0589,0.0588,0.0587,0.0587,0,0,-0.0285,-0.0222,-0.0217,-0.0176,-0.0102,-0.0052,0.0055,0.0161,0.023,0.0321,0.041,0.0553,0.0558,0.0619,0.0659,0.0637,0.0604,0.0608,0.0605,0.0565,0.0521,0.0573,0.0571,0.0589,0.0588,0.0588,0.0492,0,-0.0256,-0.0191,-0.0156,-0.0053,-0.0005,0.0062,0.0165,0.0265,0.0349,0.0444,0.0503,0.0607,0.0612,0.0654,0.0638,0.0628,0.0589,0.063,0.0514,0.051,0.0553,0.0566,0.0504,0.0421,0.0485,0.0484,0.0484,0,-0.0237,-0.0188,-0.01,0.0021,0.0048,0.0123,0.0273,0.0366,0.0492,0.055,0.0628,0.067,0.0716,0.0672,0.0634,0.066,0.0588,0.0543,0.0538,0.0568,0.0552,0.0416,0.0406,0.0472,0.0473,0.0474,0.0475,0,-0.0247,-0.0145,-0.0068,-0.0027,0.0108,0.0178,0.0263,0.0399,0.0484,0.06,0.0649,0.071,0.0736,0.0664,0.0625,0.0613,0.0535,0.0503,0.0472,0.0474,0.039,0.0388,0.0416,0.0416,0.0416,0.0417,0.0417,0,-0.0228,-0.0163,-0.0067,-0.0021,0.0095,0.0185,0.0311,0.0405,0.0519,0.062,0.0687,0.0751,0.0725,0.071,0.0628,0.0563,0.0538,0.0477,0.0459,0.0406,0.0406,0.0428,0.043,0.0413,0.0414,0.0414,0.0415,0,-0.0235,-0.0184,-0.0091,0.0041,0.0089,0.0172,0.0326,0.0413,0.0515,0.0632,0.0666,0.0768,0.0769,0.0736,0.0636,0.0583,0.0498,0.0464,0.0417,0.0398,0.044,0.0446,0.0398,0.04,0.0401,0.0401,0.0402,0,-0.0219,-0.018,-0.0064,-0.0012,0.0052,0.0176,0.0265,0.04,0.0489,0.065,0.0702,0.076,0.0828,0.0745,0.064,0.0521,0.052,0.0401,0.0374,0.0455,0.0441,0.0445,0.045,0.0256,0.0256,0.0255,0.0255,0,-0.0177,-0.016,-0.0091,0.0001,0.0089,0.0205,0.0337,0.0405,0.0567,0.0659,0.0788,0.0847,0.0804,0.0712,0.0602,0.051,0.043,0.0392,0.0464,0.0308,0.0323,0.031,0.0317,0.0251,0.0251,0.0251,0.0252,0.0252,-0.0146,-0.0113,-0.0049,0.0053,0.0142,0.0264,0.0349,0.0474,0.0617,0.0763,0.0811,0.0865,0.0779,0.0621,0.0521,0.0403,0.0403,0.0328,0.0326,0.0326,0.0365,0.0386,0.0329,0.033,0.0331,0.0331,0.0332,0,-0.0076,-0.005,0.0018,0.0136,0.0236,0.0283,0.0428,0.0496,0.0649,0.0739,0.0832,0.0735,0.0663,0.0569,0.0362,0.0281,0.0241,0.0272,0.0208,0.0211,0.0215,0.0247,0.0179,0.0179,0.0179,0.0179,0,0,-0.0034,0.0025,0.0058,0.0227,0.0305,0.0417,0.0495,0.0566,0.0625,0.0708,0.0724,0.0761,0.0651,0.0487,0.0365,0.0259,0.026,0.0247,0.0365,0.0303,0.0308,0.0232,0.0285,0,0,0,0,0]}],[{"header":{"parameterUnit":"m.s-1","parameterCategory":2,"la1":30.2991,"la2":30.254,"lo1":-89.0895,"lo2":-89.0444,"dy":0.0017,"dx":0.0017,"nx":28,"ny":28,"refTime":"2024-07-01T21:00:00:Z","depth":"4","parameterNumber":2,"parameterNumberName":"U-component_of_CURRENTS"},"data":[0,0,0,0,0,0,0,0,0,0,0,0,0,0,0,0,0,0,0,0,0,0,0,0,0,0,0,0,0,0,0,0,0,0,0,0,0,0,0,0,0,0,0,0,0,0,0,0,0,0,0,0,0,0,0,0,0,0,-0.0372,-0.0372,0,-0.037,-0.037,-0.0369,-0.0314,-0.0313,-0.0312,-0.0311,-0.0381,-0.0383,-0.0386,0,0,0,0,0,0,0,0,0,0,0,0,0,-0.0258,-0.026,-0.0371,-0.0372,-0.0373,-0.037,-0.037,-0.0369,-0.0314,-0.0313,-0.0312,-0.0311,-0.038,-0.0383,-0.0386,0,0,0,0,0,0,0,0,0,0,0,0,0,-0.0282,-0.0261,-0.0371,-0.0349,-0.0347,-0.037,-0.037,-0.0369,-0.0315,-0.0313,-0.0312,-0.0311,-0.0379,-0.0383,-0.0387,-0.044,0,0,-0.0399,-0.0401,0,0,0,0,0,0,0,0,-0.028,-0.0285,-0.0352,-0.0351,-0.0349,-0.0346,-0.0355,-0.0398,-0.0315,-0.0321,-0.0311,-0.031,-0.038,-0.0384,-0.0378,-0.0443,-0.0446,-0.04,-0.0402,-0.0404,-0.0405,0,0,0,0,0,0,0,-0.0279,-0.0285,-0.0365,-0.0353,-0.0351,-0.0316,-0.0318,-0.0362,-0.0356,-0.032,-0.0318,-0.0327,-0.0379,-0.0374,-0.038,-0.0447,-0.0399,-0.0403,-0.0406,-0.0407,-0.0479,-0.0479,0,0,0,0,0,0,-0.0296,-0.0284,-0.0365,-0.0366,-0.0317,-0.032,-0.0321,-0.0344,-0.0353,-0.0355,-0.0328,-0.0325,-0.0368,-0.0375,-0.0382,-0.0299,-0.0404,-0.0407,-0.041,-0.048,-0.0479,-0.0478,0,0,0,0,0,0,-0.0294,-0.0304,-0.0366,-0.0328,-0.0334,-0.0324,-0.0349,-0.0345,-0.0299,-0.036,-0.0361,-0.0284,-0.0367,-0.0376,-0.0368,-0.0307,-0.0409,-0.0413,-0.048,-0.0479,-0.0479,-0.0227,0,0,0,0,0,0,-0.0291,-0.0303,-0.0312,-0.033,-0.0337,-0.0356,-0.0351,-0.0346,-0.0313,-0.0306,-0.0323,-0.033,-0.0367,-0.0361,-0.0372,-0.0314,-0.0416,-0.0481,-0.048,-0.0479,-0.0236,-0.0218,-0.0202,0,0,0,0,0,-0.0287,-0.0307,-0.0313,-0.0322,-0.0354,-0.0356,-0.0354,-0.0338,-0.0311,-0.029,-0.0283,-0.0327,-0.0364,-0.0363,-0.0376,-0.0318,-0.0481,-0.048,-0.0479,-0.0244,-0.0222,-0.0203,0,0,0,0,0,0,-0.0272,-0.0305,-0.031,-0.0343,-0.034,-0.0348,-0.0335,-0.0315,-0.0291,-0.0268,-0.0309,-0.0316,-0.0288,-0.0358,-0.0356,-0.0347,-0.0436,-0.0438,-0.0253,-0.0233,-0.0217,-0.0181,-0.042,0,0,0,0,0,-0.0276,-0.0291,-0.0313,-0.0335,-0.0331,-0.0322,-0.0314,-0.0291,-0.0284,-0.0267,-0.0261,-0.0281,-0.0304,-0.0306,-0.0341,-0.0332,-0.0421,-0.0316,-0.0298,-0.0283,-0.0269,-0.0349,-0.0337,-0.0474,-0.0474,-0.0475,0,0,-0.0281,-0.0299,-0.031,-0.033,-0.0325,-0.0296,-0.031,-0.028,-0.0225,-0.0286,-0.0192,-0.0216,-0.0292,-0.0262,-0.026,-0.0302,-0.0292,-0.0281,-0.0266,-0.0261,-0.0347,-0.0333,-0.032,-0.0474,-0.0474,-0.0474,0,0,-0.0283,-0.0307,-0.0307,-0.0292,-0.0275,-0.026,-0.024,-0.0202,-0.0155,-0.0087,-0.0116,-0.0101,-0.0112,-0.0144,-0.0172,-0.0102,-0.0199,-0.011,0.0018,-0.0059,-0.0047,-0.0038,-0.0123,-0.0123,-0.0099,-0.0099,-0.0098,0,-0.0272,-0.0287,-0.0304,-0.0281,-0.0249,-0.0233,-0.0184,-0.0147,-0.0092,-0.0046,-0.0029,-0.0013,-0.006,-0.0056,-0.0002,-0.0057,-0.0114,-0.0035,-0.003,-0.0023,-0.0018,-0.0108,-0.0112,-0.0086,-0.0088,-0.0089,-0.009,0,-0.027,-0.0257,-0.0249,-0.0209,-0.0174,-0.0132,-0.0081,-0.0006,0.0072,0.0112,0.0185,0.0149,0.0156,0.0146,0.0115,0.0133,0.0076,0.0008,-0.0063,0.0012,-0.009,-0.0097,-0.0069,-0.0073,-0.0077,-0.008,0,0,-0.0282,-0.025,-0.0238,-0.0195,-0.0117,-0.0087,0.0023,0.0111,0.0181,0.027,0.0347,0.0368,0.0381,0.0346,0.0299,0.0259,0.0265,0.0193,0.0183,0.0142,0.0111,0.0169,0.0164,0.0224,0.0223,0.0223,0.003,0,-0.0254,-0.0208,-0.0179,-0.0083,-0.0042,0.0038,0.0132,0.0224,0.0303,0.0379,0.0388,0.0432,0.044,0.0462,0.0441,0.0286,0.0255,0.0324,0.0013,0.0003,0.0074,0.0161,0.0222,0.0023,0.0021,0.002,0.0019,0,-0.0243,-0.0208,-0.0125,-0.001,0.0021,0.0104,0.0261,0.0341,0.0437,0.0501,0.0573,0.0573,0.0573,0.0544,0.0396,0.0453,0.0333,0.0213,0.02,0.0164,0.0048,-0.008,0.0002,0.0003,0.0004,0.0005,0.0006,0,-0.0249,-0.0157,-0.0083,-0.0044,0.0082,0.0179,0.0271,0.0395,0.0448,0.057,0.0595,0.0634,0.0592,0.051,0.0323,0.0381,0.0084,0.0096,0.0029,0.0028,-0.0082,-0.0091,-0.0012,-0.0012,-0.0011,-0.0011,-0.001,0,-0.0225,-0.0168,-0.0074,-0.0032,0.0085,0.0196,0.032,0.042,0.0512,0.053,0.065,0.061,0.0584,0.0426,0.0314,0.0136,0.007,0.0079,0.0002,0.0025,0.0031,-0.0088,-0.0095,-0.0018,-0.0017,-0.0015,-0.0014,0,-0.0244,-0.0189,-0.0123,0.0017,0.0075,0.016,0.0312,0.0376,0.0487,0.0497,0.0539,0.0552,0.0444,0.0339,0.0113,0.0079,-0.0094,-0.0169,-0.0166,-0.0247,-0.0076,-0.0068,-0.0144,-0.0143,-0.0142,-0.0141,-0.0141,0,-0.024,-0.0213,-0.0121,-0.0087,-0.0012,0.012,0.0205,0.0357,0.0376,0.0409,0.0363,0.0336,0.0336,0.0073,-0.0016,-0.0161,-0.0186,-0.0265,-0.0056,-0.0012,-0.0081,-0.0074,-0.0067,-0.014,-0.0139,-0.0139,-0.0139,0,-0.0249,-0.024,-0.0212,-0.0155,-0.0066,0.0026,0.0132,0.0151,0.0272,0.0314,0.0277,0.0287,0.0148,0.0087,-0.0043,-0.0175,-0.0168,-0.0254,-0.0252,-0.0056,-0.0009,-0.0076,-0.007,-0.0136,-0.0137,-0.0137,-0.0137,0,-0.0283,-0.0291,-0.0278,-0.0212,-0.0143,-0.0052,0.0023,0.0084,0.015,0.0214,0.0137,0.0125,0.0103,0.0059,-0.012,-0.0146,-0.0066,-0.0046,-0.0053,-0.0057,0.0072,0.0151,0.0031,0,0,0,0,0,-0.0286,-0.0307,-0.031,-0.025,-0.0199,-0.0086,-0.0027,0.0036,0.0105,0.0101,0.0168,0.0083,0.0063,-0.0002,0.0003,-0.0091,-0.0112,-0.0089,-0.0102,-0.0121,-0.0125,0.0024,0,0,0,0,0,0,-0.0304,-0.0327,-0.0339,-0.0289,-0.0202,-0.0098,-0.0003,0.005,0.0052,0.01,0.0071,0.0116,0.0052,0.0091,0.0021,0.0006,0.0005,-0.0104,-0.0103,-0.012,-0.0122,-0.0125,0.0027,0,0,0,0,0]},{"header":{"parameterUnit":"m.s-1","parameterCategory":2,"la1":30.2991,"la2":30.254,"lo1":-89.0895,"lo2":-89.0444,"dy":0.0017,"dx":0.0017,"nx":28,"ny":28,"refTime":"2024-07-01T21:00:00:Z","depth":"4","parameterNumber":3,"parameterNumberName":"V-component_of_CURRENTS"},"data":[0,0,0,0,0,0,0,0,0,0,0,0,0,0,0,0,0,0,0,0,0,0,0,0,0,0,0,0,0,0,0,0,0,0,0,0,0,0,0,0,0,0,0,0,0,0,0,0,0,0,0,0,0,0,0,0,0,0,0.0443,0.0444,0,0.0503,0.0503,0.0503,0.0508,0.0508,0.0508,0.0507,0.0391,0.0388,0.0385,0,0,0,0,0,0,0,0,0,0,0,0,0,0.0344,0.0345,0.0443,0.0445,0.0446,0.0503,0.0503,0.0503,0.0508,0.0508,0.0507,0.0507,0.0392,0.0389,0.0385,0,0,0,0,0,0,0,0,0,0,0,0,0,0.0388,0.0346,0.0443,0.0459,0.0462,0.0503,0.0503,0.0503,0.0508,0.0508,0.0507,0.0507,0.0393,0.0389,0.0385,0.0361,0,0,0.0371,0.0369,0,0,0,0,0,0,0,0,0.0385,0.0391,0.0456,0.0458,0.0461,0.0503,0.0426,0.0449,0.0508,0.0484,0.0507,0.0507,0.0416,0.041,0.0416,0.0355,0.035,0.0371,0.0368,0.0366,0.0365,0,0,0,0,0,0,0,0.0382,0.0388,0.0461,0.0457,0.0461,0.0468,0.0473,0.0431,0.0442,0.0486,0.0488,0.0504,0.0416,0.042,0.0412,0.0348,0.0371,0.0367,0.0364,0.0362,0.0221,0.022,0,0,0,0,0,0,0.0387,0.0386,0.0459,0.0463,0.0429,0.047,0.0476,0.0485,0.0447,0.0444,0.0504,0.0504,0.0428,0.0418,0.0408,0.0343,0.0366,0.0362,0.0359,0.0222,0.0221,0.022,0,0,0,0,0,0,0.0384,0.0392,0.0457,0.0431,0.044,0.0472,0.0482,0.0486,0.0499,0.0464,0.0456,0.0515,0.0427,0.0414,0.0357,0.0339,0.036,0.0356,0.0224,0.0222,0.0221,0.0233,0,0,0,0,0,0,0.0381,0.0391,0.0414,0.0431,0.0442,0.0485,0.0483,0.0488,0.0512,0.0512,0.047,0.0459,0.0426,0.0364,0.0353,0.0334,0.0352,0.0225,0.0223,0.0221,0.0234,0.0232,0.0231,0,0,0,0,0,0.0377,0.0402,0.0414,0.0425,0.0467,0.0486,0.0492,0.051,0.0513,0.052,0.0476,0.0461,0.0344,0.036,0.0347,0.0326,0.0226,0.0224,0.0221,0.0235,0.0233,0.0231,0,0,0,0,0,0,0.0367,0.0407,0.0419,0.0455,0.0474,0.0489,0.0515,0.0516,0.0494,0.0491,0.0445,0.043,0.037,0.0347,0.0366,0.0279,0.0283,0.0278,0.0298,0.0296,0.0294,0.0332,0.0348,0,0,0,0,0,0.0378,0.0411,0.0436,0.0466,0.0481,0.0498,0.0515,0.052,0.0504,0.0498,0.0456,0.0407,0.0351,0.0324,0.0275,0.023,0.0231,0.0208,0.0207,0.0206,0.0227,0.0178,0.0174,0.0212,0.0212,0.0212,0,0,0.0386,0.0413,0.0433,0.0468,0.0489,0.0502,0.0507,0.0533,0.0527,0.0483,0.0449,0.0397,0.0336,0.0279,0.0252,0.0258,0.0201,0.0202,0.0202,0.0225,0.0175,0.0172,0.0169,0.0211,0.0211,0.0211,0,0,0.0409,0.0439,0.0473,0.0489,0.0526,0.0523,0.053,0.0536,0.0528,0.0493,0.0446,0.0384,0.0318,0.026,0.0226,0.0186,0.0189,0.0172,0.0198,0.0149,0.0146,0.0143,0.0175,0.0175,0.0176,0.0176,0.0176,0,0.0417,0.0464,0.0483,0.0511,0.0533,0.0529,0.0553,0.0536,0.0512,0.0498,0.0484,0.0364,0.0307,0.0228,0.0216,0.0181,0.019,0.0211,0.0149,0.0146,0.0143,0.0175,0.0175,0.0177,0.0177,0.0177,0.0176,0,0.0458,0.0499,0.0519,0.0549,0.0562,0.0586,0.0569,0.0558,0.054,0.0514,0.0443,0.0358,0.0302,0.0254,0.0226,0.0168,0.0196,0.0149,0.0161,0.014,0.0176,0.0175,0.0177,0.0177,0.0177,0.0177,0,0,0.0482,0.0537,0.0558,0.0582,0.059,0.0608,0.0587,0.0575,0.0566,0.0505,0.0473,0.0365,0.0338,0.0298,0.0235,0.0183,0.0168,0.0174,0.0171,0.022,0.0131,0.008,0.0076,0.0112,0.0111,0.011,0.0178,0,0.0518,0.0584,0.0599,0.0645,0.0667,0.0658,0.0647,0.0625,0.0581,0.0533,0.0439,0.039,0.0347,0.0327,0.0262,0.0158,0.0163,0.0159,0.0132,0.0133,0.0099,0.007,0.0107,0.0177,0.0177,0.0177,0.0177,0,0.0568,0.0604,0.0674,0.0704,0.0719,0.075,0.0748,0.0732,0.0654,0.0622,0.0549,0.0473,0.0376,0.035,0.0226,0.023,0.0221,0.0159,0.0158,0.0108,0.0078,0.019,0.0177,0.0177,0.0177,0.0177,0.0177,0,0.059,0.0658,0.0724,0.074,0.0766,0.0813,0.0827,0.0782,0.0755,0.0696,0.065,0.0537,0.0461,0.0394,0.0277,0.0266,0.0151,0.0112,0.0086,0.0087,0.0112,0.0114,0.0102,0.0102,0.0102,0.0102,0.0102,0,0.06,0.0662,0.0767,0.0801,0.0881,0.0887,0.0932,0.0922,0.0864,0.0769,0.0723,0.0577,0.0465,0.0357,0.0301,0.0179,0.0187,0.0104,0.0081,0.0121,0.0123,0.0115,0.0116,0.0104,0.0104,0.0103,0.0103,0,0.0581,0.0664,0.075,0.085,0.09,0.0963,0.1012,0.0994,0.0973,0.0838,0.0822,0.062,0.044,0.0375,0.0229,0.0193,0.0103,0.0101,0.0212,0.0192,0.0089,0.0089,0.0063,0.0062,0.006,0.0059,0.0058,0,0.0553,0.0618,0.0794,0.0871,0.0939,0.1032,0.1061,0.1065,0.0969,0.0782,0.0649,0.051,0.0361,0.0177,0.0081,0.0061,0.0053,0.0107,0.0047,0.0095,0.0076,0.0079,0.0081,0.0056,0.0056,0.0055,0.0055,0,0.049,0.0612,0.0671,0.0839,0.0945,0.1004,0.1008,0.0947,0.0834,0.0816,0.0519,0.041,0.0202,0.0059,0.0106,0.0048,0.0094,0.0092,0.0094,0.0037,0.0086,0.0069,0.0072,0.005,0.0051,0.0051,0.0051,0,0.0462,0.049,0.0618,0.0771,0.0886,0.0908,0.0945,0.0814,0.0756,0.0536,0.0393,0.0233,0.0126,0.0044,0.0002,0.002,-0.0006,0.0045,0.0049,0.0054,0.0004,0.0061,0.0002,0,0,0,0,0,0.0411,0.0439,0.053,0.0662,0.0771,0.086,0.0837,0.0823,0.0689,0.0499,0.0468,0.0271,0.0143,0.0022,0.003,-0.0047,0.0002,-0.0038,0.0068,0.0023,0.0028,-0.0038,0,0,0,0,0,0,0.0371,0.0431,0.047,0.0545,0.0631,0.0703,0.0724,0.0662,0.0528,0.0413,0.0334,0.0298,0.0167,0.0161,0.0036,0.002,0.0095,-0.01,-0.01,0.0019,0.0025,0.0029,-0.0037,0,0,0,0,0]}]]